{"data":{"norad_id":58359,"intl_designator":"2023-177J","name":"STARLINK-30878","alt_names":[],"object_type":"PAYLOAD","status":"ACTIVE","operator":null,"country":"US","launch_date":"2023-11-18","launch_site_code":"AFETR","launch_vehicle":null,"mission":null,"orbit_class":"UNKNOWN","rcs_meters":null,"size_class":null,"mass_kg":null,"dimensions":null,"purposes":["comms"],"wikipedia_slug":null,"has_3d_model":false,"image_url":null,"decayed_at":null,"tle_current":{"epoch":"2026-05-25T02:19:40.221120Z","epoch_age_seconds":62669,"freshness":"FRESH","line1":"1 58359U 23177J   26145.09699330  .00001456  00000+0  62448-4 0  9990","line2":"2 58359  43.0060 282.4344 0001392 283.7732  76.2965 15.27568173139877","mean_motion":15.27568173,"eccentricity":0.0001392,"inclination_deg":43.006,"raan_deg":282.4344,"arg_perigee_deg":283.7732,"mean_anomaly_deg":76.2965,"bstar":6.2448e-5,"rev_number":13987,"period_min":94.267478561823,"perigee_km":482.12942852661,"apogee_km":484.03959259516,"semimajor_km":6861.2215105609,"source":"CELESTRAK","updated_at":"2026-05-25T13:38:18.606799Z"}}}